DW5856 Weather Reports


time (UTC)temp
F
wind
direction
speed
knots
gust
knots
rain 1hr
in
rain 24hr
in
rain mn
in
humidity
%
barometer
mb
20260504214509 62 343 4.3 7.8 0.00 0.00 0.00 41 999.8
20260504213007 61 24 5.2 8.7 0.00 0.00 0.00 42 999.7
20260504211504 61 355 5.2 12.2 0.00 0.00 0.00 42 999.5
20260504210005 61 355 13.9 24.3 0.00 0.00 0.00 44 999.5
20260504204502 61 346 16.5 29.5 0.00 0.00 0.00 42 999.4
20260504203002 62 5 13.9 20.0 0.00 0.00 0.00 38 999.4
20260504201500 61 5 16.5 24.3 0.00 0.00 0.00 38 999.6
20260504194559 63 5 21.7 35.6 0.00 0.00 0.00 33 999.5
20260504193059 67 278 7.0 12.2 0.00 0.00 0.00 25 998.9
20260504191558 66 251 4.3 16.5 0.00 0.00 0.00 28 998.5
20260504184604 68 269 6.1 12.2 0.00 0.00 0.00 28 998.2
20260504183100 69 262 9.6 13.9 0.00 0.00 0.00 27 998.5
20260504181554 69 194 6.1 9.6 0.00 0.00 0.00 26 998.5
20260504180054 70 215 4.3 11.3 0.00 0.00 0.00 27 998.5
20260504174553 69 286 4.3 13.0 0.00 0.00 0.00 25 998.7
20260504173050 70 258 7.8 12.2 0.00 0.00 0.00 25 998.9
20260504171549 70 241 4.3 8.7 0.00 0.00 0.00 25 999.1
20260504081541 50 325 3.5 5.2 0.00 0.00 0.00 41 1000.7
20260504050014 56 360 2.6 5.2 0.00 0.00 0.00 34 1001.6
20260504044522 57 355 4.3 7.8 0.00 0.00 0.00 33 1001.5
20260504043016 58 11 6.1 9.6 0.00 0.00 0.00 31 1001.6
20260504041512 59 15 7.0 10.4 0.00 0.00 0.00 28 1001.6
20260504040011 61 38 7.8 10.4 0.00 0.00 0.00 25 1001.6
20260504034510 63 16 10.4 13.9 0.00 0.00 0.00 24 1001.4
20260504033009 61 343 6.1 7.8 0.00 0.00 0.00 25 1001.0
20260504031509 62 272 3.5 7.8 0.00 0.00 0.00 27 1000.7
20260504030010 61 271 2.6 3.5 0.00 0.00 0.00 27 1000.5
20260504024509 62 274 3.5 5.2 0.00 0.00 0.00 26 1000.4
20260504023009 64 298 3.5 5.2 0.00 0.00 0.00 25 1000.3
20260504021507 66 232 0.9 4.3 0.00 0.00 0.00 25 1000.1
20260504020012 68 230 0.9 4.3 0.00 0.00 0.00 24 999.9
20260504014507 69 238 2.6 6.1 0.00 0.00 0.00 23 999.8
20260504013004 70 181 5.2 8.7 0.00 0.00 0.00 23 999.8
20260504011504 71 173 3.5 6.1 0.00 0.00 0.00 23 999.8
20260504010002 70 226 1.7 4.3 0.00 0.00 0.00 23 1000.1
20260504004501 69 268 3.5 6.1 0.00 0.00 0.00 23 1000.1
20260504003104 69 55 0.9 4.3 0.00 0.00 0.00 25 1000.1
20260504001618 70 16 0.9 3.5 0.00 0.00 0.00 21 1000.1
20260504000059 69 111 0.9 6.1 0.00 0.00 0.00 23 1000.3
20260503234556 70 90 2.6 7.0 0.00 0.00 0.00 25 1000.4
20260503233055 71 155 3.5 8.7 0.00 0.00 0.00 22 1000.4
20260503231555 71 97 1.7 5.2 0.00 0.00 0.00 21 1000.5
20260503230058 72 137 2.6 11.3 0.00 0.00 0.00 21 1000.6
20260503224552 72 155 0.0 5.2 0.00 0.00 0.00 19 1000.6
20260503223052 72 26 0.9 4.3 0.00 0.00 0.00 18 1000.9
20260503221551 72 5 8.7 12.2 0.00 0.00 0.00 18 1000.7
20260503220053 73 32 7.0 16.5 0.00 0.00 0.00 18 1000.9